Location: Bottom School (historical)
(37.9078°N, 89.3593°W)
Time: 20:56:13
(UTC+00:00)

STRAND 1 - Pass Details

Date: 11 April 2023
Orbit: 767 x 779 km, 98.4° (Epoch: 30 May)

Event Time Altitude Azimuth Distance (km) Brightness Sun altitude
Rises 10:40:51 0° 125° (SE) 3,238 ? -9.8°
Reaches altitude 10° 10:43:48 10° 107° (ESE) 2,314 ? -9.3°
Maximum altitude 10:47:13 18° 65° (ENE) 1,801 ? -8.7°
Drops below altitude 10° 10:50:38 10° 22° (NNE) 2,318 ? -8.0°
Sets 10:53:35 0° 5° (N) 3,248 ? -7.4°
